Location: Unspecified
(56.5167°N, 0.0000°E)
Time: 02:50:00
(UTC+02:00)

Cosmos 1674 - Visible Passes

Search period start: 27 July 2017 00:00
Search period end: 06 August 2017 00:00
Orbit: 498 x 522 km, 82.5° (Epoch: 26 July)

Date Brightness Start Highest point End Pass type
(mag) Time Alt. Az. Time Alt. Az. Time Alt. Az.
27 Jul 6.0 03:40:20 10° NE 03:41:31 11° NE 03:42:42 10° ENE visible
28 Jul 3.6 04:57:30 10° N 05:01:18 53° ENE 05:05:05 10° SSE visible
29 Jul 3.9 04:40:55 10° N 04:44:38 44° ENE 04:48:21 10° SE visible
30 Jul 4.3 04:24:20 10° N 04:27:57 37° ENE 04:31:34 10° SE visible
31 Jul 4.6 04:07:46 10° N 04:11:16 31° ENE 04:14:45 10° SE visible
01 Aug 4.8 03:51:14 10° N 03:54:34 27° ENE 03:57:53 10° SE visible
02 Aug 5.0 03:34:42 10° N 03:37:51 23° ENE 03:40:59 10° ESE visible
02 Aug 3.0 05:09:57 10° NNW 05:13:42 48° W 05:17:27 10° S visible
03 Aug 5.2 03:18:13 10° NNE 03:21:07 20° ENE 03:24:02 10° ESE visible
03 Aug 2.8 04:53:17 10° NNW 04:57:06 59° W 05:00:55 10° S visible
04 Aug 5.4 03:01:45 10° NNE 03:04:23 17° ENE 03:07:00 10° ESE visible
04 Aug 2.7 04:36:37 10° NNW 04:40:29 72° W 04:44:20 10° S visible
05 Aug 5.5 02:45:21 10° NNE 02:47:38 15° ENE 02:49:55 10° E visible
05 Aug 2.7 04:19:57 10° NNW 04:23:51 87° W 04:27:44 10° S visible
